Location: Newark
(7.0858°N, 171.3717°E)
Time: 14:01:35
(UTC+00:00)

Courier 1B Rocket - Pass Details

Date: 04 December 2020
Orbit: 920 x 1202 km, 28.2° (Epoch: 20 January)

Event Time Altitude Azimuth Distance (km) Brightness Sun altitude
Rises 22:28:50 0° 301° (WNW) 4,054 7.8 49.0°
Reaches altitude 10° 22:31:44 10° 302° (WNW) 3,067 7.3 49.5°
Maximum altitude 22:39:21 79° 29° (NNE) 1,135 6.2 50.8°
Drops below altitude 10° 22:46:27 10° 115° (ESE) 2,873 8.2 51.9°
Sets 22:49:05 0° 116° (ESE) 3,785 8.6 52.3°
